Notices

What's New in latest Release from April 7th, 2021:

- Updated Glossary, including Speed of Maximum Gust, and Total Hourly Precipitation

- Updated national and regional climate services offices contacts and prices information

- Addition of station inventory lists for 1981-2010, 1971-2000, and 1961-1990 Normals.

If you haven't already, please take our survey and provide feedback about our website: https://eccc.sondage-survey.ca/f/LanguageSelection.aspx?s=442ca660-fcf1-47c0-95a9-59707d6fd709

Hourly Data Report for December 10, 2019

SAINT JOHN A
NEW BRUNSWICK
Current Station Operator: NAVCAN

45°18'58.000" N
65°53'24.000" W
108.80 m
8104901
71609
YSJ

Download Data

Hourly Data (December 2019)
Hourly Data Report for December 10, 2019
TIME
LST
Temp Definition
°C
Dew Point Definition
°C
Rel Hum Definition
%
Precip. Amount Definition
mm

Wind Dir Definition
10's deg

Wind Spd Definition
km/h
Visibility Definition
km
Stn Press Definition
kPa
Hmdx Definition


Wind Chill Definition


Weather Definition


00:00 11.0 10.9 99   18 52 8.1 99.53     Moderate Rain,Fog
01:00 11.2 11.1 100   19 48 8.1 99.42     Moderate Rain,Fog
02:00 11.6 11.6 100   19 50 8.1 99.18     Moderate Rain,Fog
03:00 11.8 11.8 100   19 61 8.1 98.94     Moderate Rain,Fog
04:00 11.1 11.1 100   20 57 8.1 98.88     Moderate Rain,Fog
05:00 10.9 10.9 100   21 60 8.1 98.88     Moderate Rain,Fog
06:00 11.0 11.0 100   21 44 8.1 98.95     Moderate Rain,Fog
07:00 10.9 10.9 100   22 39 4.8 99.01     Rain,Fog
08:00 10.7 10.7 100   22 29 3.2 99.10     Rain,Fog
09:00 10.4 10.4 100   21 34 1.6 99.11     Drizzle,Fog
10:00 10.1 10.1 100   21 28 1.6 99.19     Drizzle,Fog
11:00 10.0 10.0 100   21 28 1.6 99.25     Drizzle,Fog
12:00 10.1 10.1 100   21 36 3.2 99.21     Drizzle,Fog
13:00 10.1 10.1 100   21 32 3.2 99.16     Fog
14:00 9.9 9.9 100   21 32 4.8 99.11     Fog
15:00 9.7 9.7 100   21 35 0.8 99.07     Fog
16:00 9.5 9.5 100   21 34 0.4 99.14     Rain,Fog
17:00 9.7 9.7 100   21 32 0.4 99.21     Rain,Fog
18:00 9.6 9.6 100   21 27 0.4 99.16     Fog
19:00 9.8 9.8 100   21 34 3.2 99.18     Moderate Rain,Fog
20:00 9.8 9.8 100   22 26 4.8 99.28     Moderate Rain,Fog
21:00 9.9 9.9 100   23 21 3.2 99.27     Rain,Fog
22:00 9.7 9.7 100   22 24 4.8 99.35     Rain,Fog
23:00 9.4 9.2 98   28 28 4.8 99.47     Rain,Fog

Notes on Data Quality.

Legend

  • E = Estimated
  • M = Missing
  • NA = Not Available*
  • [empty] = Indicates an unobserved value
Date modified: